Regional Weather Roundup
Issued by NWS Glasgow, MT

Home | Current Version | Previous Version | Text Only | Print | Product List | Glossary On
Versions: 1 2 3 4 5 6 7 8 9 10 11 12 13 14 15 16 17 18 19 20 21 22 23 24 25 26 27 28 29 30 31 32 33 34 35 36 37 38 39 40 41 42 43 44 45 46 47 48 49 50
000
ASUS45 KGGW 240415
RWRGGW
HOURLY REGIONAL WEATHER ROUNDUP FOR NORTHEAST MONTANA
NATIONAL WEATHER SERVICE GLASGOW MONTANA
1000 PM MDT SAT JUL 23 2016

NOTE: "FAIR" INDICATES FEW OR NO CLOUDS BELOW 12,000 FEET WITH NO
SIGNIFICANT WEATHER AND/OR OBSTRUCTIONS TO VISISBILITY.

NORTHEAST MONTANA


CITY           SKY/WX    TMP DP  RH WIND       PRES   REMARKS
GLASGOW        PTCLDY    65  51  60 CALM      29.99R
PLENTYWOOD       N/A     59  53  80 W10G22      N/A
WOLF POINT     CLEAR     63  51  65 CALM      29.99R
JORDAN           N/A     67  49  52 NE6       30.03R
WINNETT          N/A     66  46  48 NE8G17      N/A
SIDNEY         PTCLDY    67  51  56 NW9       29.98R
GLENDIVE       CLEAR     67  51  56 N10       30.02R
SCOBEY           N/A     60  52  74 CALM      29.98R
OPHEIM           N/A     61  52  72 NW1       29.79

FORT PECK REPORTS


CITY           SKY/WX    TMP DP  RH WIND       PRES   REMARKS
FORT PECK        N/A     69  55  60 E8G20       N/A

SOUTHEAST MONTANA


CITY           SKY/WX    TMP DP  RH WIND       PRES   REMARKS
BILLINGS       LGT RAIN  74  46  36 S8        30.11R
MILES CITY     CLEAR     74  47  38 NE9       30.02R
BAKER          CLEAR     64  50  60 CALM      30.03R
LIVINGSTON     CLOUDY    70  37  29 NW7       30.12R

CENTRAL MONTANA


CITY           SKY/WX    TMP DP  RH WIND       PRES   REMARKS
HAVRE          CLEAR     64  52  64 MISG      29.99R
LEWISTOWN      CLOUDY    63  48  58 S8        30.10R
GREAT FALLS    CLOUDY    68  39  34 NW7       30.06R
CUT BANK       CLEAR     60  43  53 W7        30.07R
HELENA         CLEAR     67  36  31 W7        30.11R
BUTTE          CLEAR     64  36  35 N5        30.20R
BOZEMAN        CLOUDY    62  42  47 N7        30.14R

WESTERN MONTANA


CITY           SKY/WX    TMP DP  RH WIND       PRES   REMARKS
MISSOULA       CLEAR     67  41  38 N6        30.12R
KALISPELL      NOT AVBL

NORTH DAKOTA


CITY           SKY/WX    TMP DP  RH WIND       PRES   REMARKS
WILLISTON      CLEAR     65  56  72 NW10      29.95R
DICKINSON      CLEAR     61  52  72 W7        29.97R
MINOT          CLEAR     71  57  61 W16       29.85R
BISMARCK       CLEAR     73  56  54 NW9       29.89R

SOUTHERN SASKATCHEWAN


CITY           SKY/WX    TMP DP  RH WIND       PRES   REMARKS
REGINA         PTCLDY    59  55  88 W9        29.90R
ESTEVAN        PTCLDY    63  59  88 W9        29.89R
SWIFT CURRENT  CLEAR     55  54  94 SW7       29.98R




USA.gov is the U.S. government's official web portal to all federal, state and local government web resources and services.